Location: Bohemia
(40.7693°N, 73.1151°W)
Time: 00:06:52
(UTC+00:00)

Daily predictions for brighter satellites

Satellite Brightness Start Highest point End
(mag) Time Altitude Azimuth Time Altitude Azimuth Time Altitude Azimuth
MOS 1-B Rocket 4.3 00:22:41 10° NNE 00:29:40 58° E 00:35:41 10° S
Cosmos 1417 Rocket 4.5 00:26:20 10° S 00:32:31 77° E 00:38:40 10° N
IRIS 3.4 00:31:31 10° W 00:33:52 82° S 00:36:22 10° ESE
Cosmos 2082 Rocket 4.3 00:34:05 10° NNE 00:36:27 13° NE 00:38:49 10° ENE
Cosmos 1606 3.6 00:33:09 10° SSW 00:36:50 53° W 00:40:34 10° N
Cosmos 1503 Rocket 4.0 00:32:23 10° SSW 00:37:32 78° ESE 00:42:45 10° NNE
CZ-2C R/B 4.5 00:32:35 10° N 00:37:33 38° WNW 00:42:35 10° SW
Cosmos 1743 Rocket 4.1 00:33:18 10° NNW 00:37:36 62° W 00:41:55 10° S
Helios 1A Rocket 3.4 00:34:17 10° S 00:38:22 63° W 00:42:29 10° NNW
Ariane Rocket 3.3 00:37:50 10° SSE 00:42:43 52° ENE 00:47:37 10° N
CZ-4 R/B 4.3 00:40:13 10° SW 00:42:43 16° W 00:45:12 10° NW
USA 290 2.2 00:39:58 10° NNW 00:43:13 86° ENE 00:46:24 10° SSE
COSMOS 2406 4.4 00:45:28 10° N 00:50:20 28° NE 00:54:51 11° ESE
Intercosmos 25 Rocket 3.7 00:45:26 10° N 00:50:38 79° W 00:54:08 10° S
DELTA 2 R/B (1) 4.3 00:47:41 10° W 00:52:53 41° SSW 00:57:37 12° SE
Cosmos 1933 3.3 00:49:40 10° S 00:53:42 86° E 00:57:44 10° N
Resurs 1-3 3.7 00:50:23 10° SSE 00:54:40 59° ENE 00:59:00 10° N
Tianhe-1 2.8 00:53:47 10° S 00:55:41 15° SSE 00:56:11 15° SE
Cosmos 1437 3.4 00:54:19 12° SSE 00:56:27 27° E 00:58:56 10° NNE
Cosmos 1666 Rocket 3.8 00:53:09 10° N 00:57:25 50° E 01:01:26 11° SSE
Meteor 1-20 Rocket 4.2 00:51:51 10° N 00:57:27 79° E 01:02:55 10° SSE
Cosmos 1844 Rocket 4.5 00:52:39 10° SW 00:57:44 36° WNW 01:02:53 10° N
IRS-1A Rocket 4.4 00:52:37 10° SSE 00:58:23 78° ENE 01:04:16 10° NNW
Cosmos 2278 Rocket 2.6 00:54:00 10° S 00:59:12 40° ESE 01:04:26 10° NE
Cosmos 1782 3.0 00:55:55 10° S 00:59:47 51° E 01:03:39 10° NNE
SJ 16-02 2.5 00:59:40 12° SSE 01:02:51 24° E 01:06:25 10° NE
Cosmos 1812 3.9 01:02:33 15° SE 01:04:41 24° E 01:07:50 10° NE
Sich 1 3.2 01:01:08 10° N 01:05:29 75° W 01:09:51 10° S
Cosmos 2084 4.3 01:06:12 10° SW 01:10:13 52° NW 01:14:21 10° NNE
Landsat 7 4.4 01:06:59 16° SE 01:10:27 40° ENE 01:14:54 10° N
Intercosmos 24 4.4 01:07:07 10° SSW 01:10:44 55° W 01:14:17 10° N
SJ-6B 3.9 01:07:15 10° S 01:10:59 44° W 01:14:49 10° NNW
Meteor 2-17 Rocket 4.4 01:05:02 10° N 01:11:12 72° E 01:17:18 10° SSE
CZ-4C R/B 3.3 01:05:39 10° NNW 01:12:54 59° NE 01:19:33 17° SE
ATLAS 5 CENTAUR R/B 2.7 01:07:56 10° NW 01:13:44 69° WSW 01:19:48 13° SSE
Cosmos 1151 Rocket 3.0 01:11:32 10° S 01:15:53 81° E 01:20:16 10° N
USA 305 4.2 01:14:36 10° NW 01:18:28 32° NNE 01:21:35 14° E
NOSS 3-3 (A) 4.4 01:14:33 10° SW 01:20:10 64° NW 01:26:36 10° NNE
NOSS 3-3 (C) 4.3 01:14:39 10° SW 01:20:17 65° NW 01:26:42 10° NNE
SPOT 1/Viking Rocket 4.1 01:22:52 20° SE 01:26:00 41° ENE 01:30:51 10° N
ATLAS 2AS CENTAUR R/B 4.2 01:20:36 10° NNW 01:26:42 27° NE 01:32:16 11° E
IGS 5A 3.4 01:27:12 21° SSE 01:29:50 71° ENE 01:33:59 10° N
Cosmos 1709 Rocket 4.0 01:24:53 10° N 01:31:01 86° W 01:36:46 12° S
BREEZE M DEB (TANK) 4.1 01:27:35 10° WNW 01:31:33 23° N 01:33:39 10° NE
Cosmos 1833 Rocket 2.8 01:31:06 10° NNW 01:36:44 63° ENE 01:39:57 26° SE
USA 306 3.8 01:34:00 10° NW 01:38:03 41° NNE 01:40:20 22° E
Cosmos 1500 3.0 01:36:17 10° N 01:40:02 78° E 01:41:40 32° SSE
CZ-2C R/B 3.6 01:36:46 10° NNE 01:41:17 71° ESE 01:44:53 16° S
SPOT 3 Rocket 3.5 01:37:38 20° SSE 01:41:19 88° WSW 01:46:30 10° NNW
SWARM A 4.3 01:39:29 10° N 01:42:45 54° E 01:43:24 44° SE
Cosmos 773 Rocket 4.2 01:38:21 10° NNW 01:43:38 72° WSW 01:47:06 22° S
Cosmos 2228 Rocket 4.0 01:43:57 28° ESE 01:44:37 29° E 01:48:29 10° NNE
Resurs 01 Rocket 1.8 01:41:39 19° S 01:44:44 69° WSW 01:49:10 10° NNW
Akebono 4.1 01:42:55 10° NNW 01:44:48 66° NW 01:44:48 66° NW
Cosmos 1538 Rocket 4.1 01:42:23 10° NNW 01:47:43 65° ENE 01:50:14 31° SE
GPS 2-04 Rocket1 3.2 01:44:46 10° WSW 01:48:39 40° S 01:49:13 37° SSE
Meteor 1-5 Rocket 4.1 01:44:17 10° N 01:49:37 68° E 01:52:15 30° SSE
Spot 2 Rocket 3.8 01:47:58 30° SE 01:50:07 50° ENE 01:55:00 10° N
ERS-1 Rocket 3.9 01:49:56 27° ESE 01:51:39 34° ENE 01:56:09 10° N
CRYOSAT 2 4.4 01:49:10 21° S 01:52:28 81° W 01:57:23 10° N
X-37B 1.8 01:51:29 10° W 01:54:18 29° SSW 01:54:18 29° SSW
deb Kosmos-1763 3.9 01:51:29 10° NNW 01:55:01 68° ENE 01:55:36 55° SE
Cosmos 1515 Rocket 3.5 01:53:19 20° S 01:56:18 83° W 02:00:43 10° N
Cosmos 2297 4.4 02:00:19 31° ESE 02:00:47 31° ESE 02:05:43 10° NE
Delta 2 Rocket 3.9 01:57:43 10° WSW 02:02:31 44° S 02:03:03 42° SSE
Meteor 1-10 Rocket 4.1 02:00:51 25° S 02:04:12 75° E 02:09:52 10° NNE
Cosmos 1869 Rocket 4.4 02:00:57 10° NNE 02:04:54 33° ENE 02:05:16 33° E
JB-3 4.2 02:01:23 10° NNE 02:05:13 61° E 02:05:36 57° SE
USA 307 3.1 02:01:28 10° NW 02:05:43 61° NE 02:06:53 43° E
Cosmos 1271 Rocket 2.7 02:11:53 46° SSW 02:13:01 84° W 02:17:03 10° N
Terra 2.4 02:17:08 37° E 02:17:53 40° ENE 02:22:19 10° N
USA 308 2.8 02:15:10 10° NW 02:19:28 77° NE 02:20:06 62° ESE
Cosmos 2082 Rocket 2.1 02:15:54 10° NNW 02:21:32 75° ENE 02:23:13 46° SE
CARTOSAT-1 3.4 02:21:09 60° SSE 02:21:56 90° NE 02:26:16 10° NNW
H-2A R/B 4.2 02:18:00 10° NNE 02:21:19 38° ENE 02:21:19 38° ENE
ARIANE 5 R/B 2.8 02:31:09 54° SSW 02:31:54 65° WSW 02:36:13 10° NNW
Cosmos 1933 Rocket 4.3 02:29:10 10° NNW 02:33:19 45° W 02:34:30 36° SW
SPOT 5 2.9 02:33:36 56° SSE 02:34:44 86° ENE 02:40:03 10° NNW
COSMOS 2406 4.0 02:29:26 10° NW 02:34:46 43° WSW 02:36:56 30° SSW
Cosmos 1898 Rocket 3.5 02:34:06 57° SSE 02:34:53 65° ESE 02:40:10 10° NNE
Cosmos 1943 Rocket 2.4 02:39:12 48° ESE 02:39:12 48° ESE 02:44:31 10° NE
Cosmos 923 Rocket 3.9 02:35:05 10° NNW 02:40:23 83° ENE 02:41:15 63° SSE
Cosmos 990 Rocket 3.9 02:39:27 47° SSW 02:41:00 88° WNW 02:46:18 10° NNE
SJ 16-02 3.2 02:37:23 10° SW 02:41:16 30° WNW 02:45:11 10° N
DNEPR-1 R/B 4.1 02:41:13 50° S 02:42:37 67° ESE 02:47:47 10° NE
Cosmos 2278 Rocket 4.0 02:38:25 10° WSW 02:43:21 30° WNW 02:48:18 10° N
Cosmos 1666 4.1 02:41:50 10° NNW 02:45:09 30° W 02:45:30 30° WSW
Iridium 4 Rocket 4.4 02:42:49 26° SSW 02:45:53 52° W 02:51:40 10° N
Meteor 2-12 Rocket 4.4 02:43:24 10° NNW 02:49:27 75° W 02:51:13 48° SSW
Cosmos 2369 Rocket 3.4 02:51:16 27° ENE 02:51:16 27° ENE 02:54:45 10° NE
Cosmos 1733 Rocket 4.2 02:48:30 10° N 02:51:43 32° NE 02:51:43 32° NE
Meteor 1-27 Rocket 4.0 02:52:26 37° SSW 02:54:46 67° WNW 03:00:40 10° N
USA 305 3.8 02:54:26 10° WNW 02:57:39 40° W 02:57:39 40° W
SL-8 Rocket 4.4 02:53:44 10° N 02:59:49 47° ENE 03:00:36 44° E
CZ-4C R/B 4.0 02:54:34 10° NW 03:01:27 36° WSW 03:04:45 27° SSW
Cosmos 1544 4.2 02:59:35 10° N 03:02:04 41° NNW 03:02:04 41° NNW
Cosmos 2084 Rocket 4.3 03:00:02 10° NNW 03:03:54 44° NE 03:03:54 44° NE
NOSS 3-4 (A) 4.1 02:57:57 10° NW 03:05:00 61° WSW 03:07:09 46° S
NOSS 3-4 (C) 4.1 02:58:03 10° NW 03:05:07 62° WSW 03:07:15 46° S
Cosmos 1340 Rocket 3.4 03:02:13 10° N 03:05:30 56° NNW 03:05:30 56° NNW
Cosmos 1238 Rocket 3.8 03:01:11 10° N 03:06:56 53° ENE 03:06:56 53° ENE
Cosmos 1743 3.7 03:03:45 10° N 03:06:30 44° N 03:06:30 44° N
Meteor 1-19 Rocket 4.3 03:12:03 55° ENE 03:12:03 55° ENE 03:16:54 10° NNE
ATLAS 2AS CENTAUR R/B 2.6 03:11:14 10° NW 03:18:32 82° WSW 03:19:41 64° SSE
Cosmos 2112 Rocket 4.1 03:13:36 10° NNW 03:18:57 70° WSW 03:19:01 70° WSW
Cosmos 1536 4.4 03:21:37 10° NNW 03:24:37 29° WNW 03:24:37 29° WNW
Cosmos 962 Rocket 4.4 03:20:38 10° N 03:26:44 75° W 03:27:28 66° SW
Cosmos 1959 Rocket 4.5 03:22:44 10° N 03:28:55 63° E 03:29:12 63° E
Meteor 2-4 Rocket 4.3 03:30:52 46° ENE 03:30:52 46° ENE 03:35:36 10° NNE
ERS-1 Rocket 4.4 03:29:55 27° WSW 03:30:27 27° W 03:34:42 10° NW
Cosmos 1937 Rocket 4.0 03:33:12 48° W 03:33:51 51° WNW 03:38:54 10° N
Cosmos 1862 Rocket 4.4 03:35:48 47° N 03:35:48 47° N 03:38:57 10° N
Cosmos 1975 4.4 03:37:39 10° N 03:39:56 32° N 03:39:56 32° N
RESURS DK-1 4.2 03:44:24 10° N 03:47:03 26° NNE 03:47:03 26° NNE
Cosmos 2181 Rocket 4.1 03:53:39 61° WSW 03:54:13 64° W 04:00:19 10° N
Terra 3.7 03:56:01 21° W 03:56:01 21° W 03:59:20 10° NW
Milstar 3 4.3 03:48:47 10° WSW 03:56:12 31° SW 03:56:12 31° SW
Cosmos 1821 Rocket 4.4 03:54:31 10° N 04:00:44 50° ENE 04:00:53 50° E
Cosmos 2366 rocket 3.9 03:54:44 10° NNW 04:00:55 73° W 04:01:02 73° WSW
Cosmos 2082 Rocket 4.3 04:02:01 10° WNW 04:04:53 14° W 04:05:04 14° W
Cosmos 2298 Rocket 4.5 04:10:57 57° NNE 04:10:57 57° NNE 04:15:09 10° NNE
Cosmos 1607 4.0 04:12:57 76° W 04:13:19 79° WNW 04:19:52 10° NNE
ALOS 2 3.8 04:14:52 39° N 04:14:52 39° N 04:17:44 10° N
Centaur D AC-29 4.3 03:55:31 10° WSW 04:19:09 33° SW 04:19:09 33° SW
Cosmos 1943 Rocket 4.0 04:20:39 19° W 04:23:06 26° NW 04:27:44 10° N
SeaSat 1 4.3 04:19:12 10° NE 04:21:16 21° ENE 04:21:16 21° ENE
ATLAS CENTAUR R/B 3.7 04:30:12 19° NNE 04:30:12 19° NNE 04:31:24 10° NNE
Cosmos 2369 Rocket 3.2 04:33:00 36° WNW 04:33:45 38° WNW 04:39:00 10° N
Cosmos 1656 Rocket 4.1 04:38:22 53° NW 04:38:22 53° NW 04:43:30 10° NNE
Nadezhda 3 Rocket 4.0 04:41:02 77° WNW 04:41:02 77° WNW 04:47:06 10° N
BREEZE-M DEB (TANK) 3.9 04:32:40 10° WNW 04:43:38 76° NNW 04:43:38 76° NNW
Lacrosse 5 3.3 04:48:12 31° ENE 04:48:12 31° ENE 04:50:53 10° NE
Cosmos 1125 Rocket 4.2 04:54:49 50° NW 04:54:49 50° NW 04:59:12 10° N
USA 215 4.1 04:51:52 12° E 04:57:32 45° NNE 05:03:41 10° NW
Cosmos 1605 Rocket 4.3 05:00:27 10° N 05:06:38 57° E 05:06:53 57° E
EO 1 Delta rocket 4.3 05:18:58 70° N 05:18:58 70° N 05:24:18 10° N
Cosmos 2227 Rocket 4.3 05:20:49 10° N 05:25:04 21° NE 05:29:12 10° E
Cosmos 2297 Rocket 3.9 05:23:07 10° N 05:27:57 28° NE 05:30:43 19° E
ISS -0.4 05:30:17 10° NNW 05:31:58 13° N 05:33:39 10° NNE
USA 81 4.3 05:27:10 10° N 05:31:39 65° N 05:31:39 65° N
NOSS 2-1 (C) 4.3 05:31:03 10° NW 05:36:00 81° NW 05:36:00 81° NW
Cosmos 1934 Rocket 4.5 05:36:39 10° NNW 05:41:59 46° WNW 05:41:59 46° WNW
NOSS 2-1 (D) 4.4 05:37:53 10° NW 05:42:38 71° WNW 05:42:38 71° WNW
Cosmos 1656 4.3 05:45:16 45° E 05:45:16 45° E 05:49:59 10° NE
Cosmos 2344 4.5 05:43:39 10° NW 05:53:29 64° WSW 05:58:24 42° S
Cosmos 1707 4.4 05:58:22 32° NNE 05:58:22 32° NNE 06:00:34 10° NNE
Okean 1 Rocket 4.0 05:54:22 10° N 05:57:25 44° N 05:57:25 44° N
SeaSat 1 3.4 05:56:29 10° N 06:01:00 37° NW 06:01:02 37° WNW
COSMOS 2455 3.0 05:57:05 10° NNW 06:03:07 70° ENE 06:04:25 54° ESE
CZ-4 R/B 4.2 06:02:39 10° N 06:06:47 60° NNW 06:06:47 60° NNW
Meteor 2-20 4.5 06:07:18 63° W 06:07:36 64° W 06:13:44 10° N
Cosmos 1727 Rocket 3.9 06:09:20 66° WSW 06:09:49 69° W 06:16:10 10° N
Cosmos 371 Rocket 3.7 06:10:20 59° ENE 06:10:20 59° ENE 06:14:40 10° NNE
Helios 1B rocket 3.6 06:08:18 10° NNE 06:11:27 38° ENE 06:11:27 38° ENE
Cosmos 2219 3.8 06:07:06 10° NNW 06:12:42 54° ENE 06:14:52 35° ESE
SL-16 R/B 2.9 06:15:31 37° SE 06:17:56 61° ENE 06:24:06 10° N
ADEOS II 3.3 06:20:01 10° NE 06:24:41 31° E 06:25:56 28° ESE
Lacrosse 4 Rocket 2.7 06:26:20 35° E 06:26:20 35° E 06:29:57 10° NE
Cosmos 1953 3.2 06:25:15 10° N 06:28:48 45° ENE 06:28:48 45° ENE
Lacrosse 5 3.5 06:27:22 23° WNW 06:29:08 28° NNW 06:33:32 10° NNE
NPP 3.7 06:26:25 10° NNE 06:31:47 66° ESE 06:32:31 59° SE
AQUA 4.3 06:27:20 10° NNE 06:31:59 51° E 06:32:19 50° ESE
CZ-2D R/B 2.0 06:27:10 10° NNE 06:32:36 82° ESE 06:33:07 72° SSE
Cosmos 1455 Rocket 3.2 06:32:22 10° N 06:36:33 69° ENE 06:36:33 69° ENE
Resurs 1-4 Rocket 1.9 06:33:28 10° NNE 06:38:45 85° WNW 06:39:15 73° SSW
USA 215 3.2 06:39:06 50° S 06:40:23 59° SW 06:46:51 10° NW
MOZ.5/SAFIR/RUBIN 5/SL-8 4.4 06:42:26 42° WNW 06:42:26 42° WNW 06:45:59 10° NNW
Cosmos 1725 Rocket 4.2 06:35:57 10° N 06:42:10 66° E 06:44:56 34° SSE
Cosmos 2360 4.4 06:42:06 52° SSE 06:43:11 62° ESE 06:48:51 10° NNE
Cosmos 1697 Rocket 2.6 06:42:23 62° S 06:43:15 75° ESE 06:48:52 10° NNE
Meteor 1-29 4.2 06:42:06 10° NNE 06:44:36 39° NE 06:44:36 39° NE
Cosmos 407 Rocket 4.5 06:40:19 10° N 06:45:29 46° ENE 06:49:35 16° SE
Cosmos 1459 Rocket 3.9 06:40:15 10° NNW 06:46:27 67° W 06:47:34 56° SW
Meteor 1-16 Rocket 4.3 06:41:35 10° N 06:47:33 80° E 06:49:29 44° SSE
Cosmos 1674 3.2 06:50:39 55° NNW 06:50:39 55° NNW 06:53:45 10° N
Cosmos 1726 4.5 06:47:45 10° NW 06:48:44 15° NW 06:48:44 15° NW
USA 281 3.2 06:49:16 48° SSW 06:50:54 63° WSW 06:57:26 10° NNW
GP-B 4.3 06:47:43 10° NNE 06:51:50 36° E 06:53:21 28° SE
Cosmos 1980 Rocket 2.8 06:54:10 36° SSE 06:55:55 48° ESE 07:01:21 10° NE
Cosmos 2016 Rocket 3.9 06:50:05 10° N 06:56:21 83° W 06:58:27 44° S
Meteor 2-11 Rocket 4.4 06:51:05 10° NNW 06:57:14 71° W 06:58:54 49° SSW
SL-14 R/B 4.0 06:59:18 43° ESE 06:59:44 45° E 07:03:32 10° NNE
Cosmos 2173 Rocket 4.3 06:56:43 10° NNW 07:02:36 48° W 07:03:45 43° WSW
Cosmos 2061 Rocket 4.0 06:59:51 10° N 07:06:12 75° W 07:08:42 39° S
Timation 2 Rocket 3.8 07:00:37 10° NNW 07:06:30 62° WSW 07:08:17 43° SSW
Cosmos 1626 2.1 07:07:59 76° N 07:07:59 76° N 07:11:26 10° N
Cosmos 1975 Rocket 3.9 07:08:32 34° WNW 07:08:32 34° WNW 07:12:16 10° N
Cosmos 2227 Rocket 2.2 07:03:58 10° NNW 07:09:32 61° WSW 07:10:57 46° SSW
TSX-5 4.2 07:06:00 10° NNW 07:08:44 49° NW 07:08:44 49° NW
ISS -1.2 07:06:57 10° NNW 07:09:43 23° NNE 07:12:28 10° ENE
UNK 4.0 07:11:24 47° W 07:11:24 47° W 07:15:42 10° NNW
Cosmos 1315 Rocket 4.4 07:08:13 10° NNW 07:10:25 24° WNW 07:10:25 24° WNW
Cosmos 2297 Rocket 2.5 07:06:48 10° NW 07:12:09 43° WSW 07:12:27 43° WSW
Cosmos 2285 Rocket 4.2 07:10:17 34° S 07:13:11 68° ESE 07:19:35 10° NNE
Cosmos 304 Rocket 3.9 07:13:22 50° WSW 07:14:06 57° WNW 07:18:51 10° N
Cosmos 2056 Rocket 3.5 07:13:38 45° S 07:15:10 75° ESE 07:20:17 10° NNE
DELTA 2 DEB (DPAF) 4.2 07:14:05 37° SSE 07:15:49 78° ENE 07:20:17 10° N
Cosmos 2369 3.7 07:14:44 45° SW 07:16:34 80° WNW 07:22:20 10° NNE
Cosmos 2278 3.9 07:15:39 35° S 07:17:59 65° ESE 07:23:39 10° NNE
ARGOS Delta rocket 3.9 07:14:16 10° N 07:18:55 62° WNW 07:20:01 48° SW
SL-19 R/B 4.4 07:15:33 10° N 07:20:57 54° WNW 07:22:31 40° WSW
Cosmos 1023 Rocket 4.4 07:16:58 10° NNW 07:22:14 89° ENE 07:25:58 20° SSE
Cosmos 1300 3.4 07:19:23 10° N 07:23:07 51° E 07:24:55 27° SE
Cosmos 2082 3.6 07:19:31 10° NNW 07:25:15 88° WSW 07:30:58 10° SSE
Cosmos 1371 Rocket 3.9 07:26:14 42° SW 07:27:59 74° WNW 07:33:12 10° NNE
OAO 2 Rocket 3.9 07:29:24 38° SSW 07:30:14 41° S 07:35:13 10° ESE
SL-16 R/B 4.0 07:26:57 10° SSE 07:31:29 25° ESE 07:36:03 10° NE
Cosmos 1025 Rocket 3.7 07:31:57 36° W 07:32:26 37° WNW 07:36:31 10° N
IRS-1D 3.6 07:33:09 10° N 07:38:29 67° WNW 07:40:55 32° SW
Cosmos 1140 Rocket 3.4 07:34:47 10° NNW 07:39:58 66° WSW 07:43:34 20° S
Iridium 2 3.7 07:42:04 47° SW 07:42:53 61° W 07:46:39 10° N
IDEFIX/ARIANE 42P 2.5 07:40:21 10° NNE 07:45:39 88° ESE 07:48:54 24° SSW
Helios 1B rocket 4.3 07:44:35 10° NNW 07:47:08 16° WNW 07:47:45 16° WNW
COSMOS 2455 4.3 07:44:30 10° WNW 07:47:29 17° W 07:47:29 17° W
Cosmos 1340 2.5 07:49:44 38° SSW 07:51:03 76° W 07:54:48 10° N
Meteor 1-28 Rocket 3.4 07:53:43 37° SW 07:54:35 45° W 07:58:10 10° NNW
IUS-18 SRM-1 4.4 07:55:12 15° S 07:55:51 15° SSE 07:59:40 10° SE
Cosmos 2219 4.4 07:52:12 10° NW 07:56:24 21° W 07:56:43 21° WSW
Meteor 2-10 Rocket 4.1 07:52:39 10° N 07:58:20 66° ENE 08:03:46 10° SSE
Cosmos 2322 Rocket 3.6 07:53:42 10° SSE 07:58:42 33° ESE 08:03:44 10° NE
SL-16 R/B 3.7 08:00:36 20° WSW 08:01:55 21° W 08:06:33 10° NW
ADEOS II 3.0 07:59:41 10° N 08:04:18 32° WNW 08:06:52 21° WSW
NOSS 3-2 (A) 4.0 08:00:10 15° S 08:04:27 47° ESE 08:10:18 10° NE
Lacrosse 4 Rocket 3.0 08:02:37 18° W 08:04:38 24° NW 08:08:16 10° N
Cosmos 2263 Rocket 2.6 07:59:10 10° NNW 08:04:48 66° ENE 08:10:26 10° SSE
Cosmos 1190 Rocket 4.3 08:00:10 10° NNW 08:05:08 45° WSW 08:09:34 13° S
Meteor 1-24 Rocket 3.7 08:01:33 21° SSW 08:05:17 65° W 08:10:41 10° N
ARIANE 5 R/B 2.6 08:00:13 10° NNE 08:05:23 80° ESE 08:09:44 14° S
IRS-P3 4.1 08:00:09 10° NNE 08:05:31 81° WNW 08:09:39 17° SSW
Cosmos 1420 Rocket 4.2 08:07:40 23° SW 08:10:48 54° WNW 08:15:55 10° N
Cosmos 1726 Rocket 4.0 08:06:52 10° N 08:11:13 62° E 08:15:35 10° SSE
Cosmos 1606 Rocket 3.6 08:06:53 10° N 08:11:18 82° E 08:15:44 10° S
CZ-2D R/B 4.1 08:09:13 10° NNW 08:11:53 14° WNW 08:14:26 10° W
Cosmos 2228 2.9 08:09:02 10° N 08:13:19 78° W 08:17:37 10° S
Lacrosse 5 4.5 08:11:18 10° NW 08:13:41 13° N 08:16:05 10° NNE
CZ-4B R/B 3.5 08:11:02 10° N 08:16:03 77° WNW 08:20:30 14° SSW
Resurs 1-4 Rocket 4.2 08:16:02 10° NW 08:17:44 12° WNW 08:19:25 10° WNW
USA 238 DEB 4.3 08:12:05 10° S 08:18:17 49° ESE 08:24:44 10° NE
USA 238 4.4 08:12:13 10° S 08:18:23 48° ESE 08:24:50 10° NE
ADEOS Rocket 3.9 08:12:30 10° SSW 08:19:28 44° W 08:26:51 10° NNW
Cosmos 2360 Rocket 3.9 08:16:42 10° SSE 08:21:29 29° ESE 08:26:17 10° NE
Cosmos 1513 Rocket 4.4 08:18:26 10° N 08:24:38 78° W 08:30:42 10° S
Meteor 2-5 Rocket 4.5 08:21:35 17° SW 08:25:16 36° WNW 08:30:25 10° N
Cosmos 1697 Rocket 4.5 08:24:07 10° W 08:27:50 18° NW 08:31:35 10° N
Cosmos 676 Rocket 4.3 08:24:00 10° NNW 08:29:02 47° WSW 08:34:04 10° S
Cosmos 1464 Rocket 3.9 08:23:53 10° N 08:30:03 77° W 08:36:16 10° S
Atlas Centaur 2 3.8 08:28:29 13° SW 08:33:32 26° SSE 08:38:40 10° ESE
Cosmos 405 3.9 08:32:17 10° NNW 08:35:23 29° W 08:38:01 13° SSW
Cosmos 292 Rocket 4.1 08:32:03 14° SW 08:36:02 52° WNW 08:40:48 10° N
Aureole 2 Rocket 2.5 08:35:34 10° NW 08:38:00 31° WSW 08:40:26 10° S
Cosmos 1980 Rocket 3.5 08:35:56 12° WSW 08:40:08 26° NW 08:44:50 10° N
Cosmos 2034 Rocket 4.1 08:33:55 10° N 08:40:19 90° SW 08:46:36 10° S
CENTAUR R/B 2.9 08:34:46 10° SSW 08:40:19 60° ESE 08:46:55 10° NE
Cosmos 2227 4.2 08:40:35 10° NNW 08:46:11 65° WSW 08:51:43 10° S
ISS -3.8 08:43:25 10° WNW 08:46:47 65° SW 08:50:07 10° SE
PAYLOAD A 3.8 08:45:00 10° N 08:49:43 81° WNW 08:54:23 10° SSW
Cosmos 1331 Rocket 4.1 08:48:49 10° SSW 08:53:57 84° ESE 08:59:10 10° NNE
Cosmos 1452 Rocket 4.1 08:49:54 10° SW 08:54:52 42° WNW 08:59:54 10° N
Aureole 1 Rocket 2.9 08:52:33 10° NNW 08:56:02 81° ENE 09:00:27 10° SSE
CZ-2D R/B 4.3 08:52:52 10° N 08:56:59 38° WNW 09:01:05 10° SW
Cosmos 1184 Rocket 3.6 08:56:12 10° S 08:59:17 50° E 09:02:25 10° NNE
FENGYUN 3A 3.9 08:57:42 10° NNE 09:03:06 77° ESE 09:08:29 10° S
Spot 4 Rocket 4.5 09:01:15 10° N 09:06:09 46° WNW 09:11:01 10° SW
CZ-2C R/B 2.7 09:01:09 10° N 09:06:14 62° WNW 09:11:20 10° SSW
